Vertical_Velocity
3 2 2 1 -1 1 2 3 -2 1 0 0 0 0 -1 2 0 1 1 2 1 -2
2 3 5 5 0 1 2 1 -0 0 -0 -1 1 -0 1 2 2 -1 -0 1 1 2
2 5 2 -1 1 6 2 -0 -1 -1 1 -0 -1 2 1 1 -0 2 1 0 -1 2
3 3 0 0 1 3 2 1 -1 1 -0 0 -2 -1 1 2 -2 1 1 1 -1 2
3 1 1 2 3 1 3 0 -0 0 0 1 1 -0 3 -0 1 -0 -0 -0 -1 1
1 0 0 2 2 2 1 2 1 2 2 -0 1 0 -0 -1 2 0 0 -1 1 1
1 -0 1 3 1 2 2 1 0 2 1 -0 1 -1 -0 -1 0 1 0 1 1 -2
-0 -0 1 3 1 1 1 1 1 -0 1 -0 -1 2 3 1 -0 0 -0 -0 2 -1
2 1 -0 3 2 2 -0 -2 0 2 1 0 1 3 -1 -2 -0 -0 2 2 -2 1
1 3 2 2 1 1 0 1 2 1 0 1 1 -1 0 1 1 0 1 1 -2 -1
7 -1 0 1 1 -1 2 1 0 1 1 0 2 0 1 0 1 -1 -0 1 1 -0
1 4 4 0 -1 1 1 -0 1 1 1 1 1 1 -1 -0 0 -2 -1 0 1 -0
6 8 -1 6 6 -1 -2 -3 1 -1 -1 1 -0 -2 2 -1 0 2 0 -1 -0 1
8 4 5 6 4 2 1 2 -0 -2 -1 0 0 -2 2 -1 1 -1 -1 0 1 -2
Height
5694 5702 5709 5715 5722 5729 5735 5740 5744 5749 5754 5759 5763 5767 5770 5773 5776 5778 5780 5782 5784 5786
5680 5689 5697 5704 5710 5717 5723 5729 5734 5739 5744 5748 5753 5756 5760 5764 5766 5769 5771 5773 5775 5778
5667 5676 5683 5691 5699 5706 5712 5718 5723 5728 5733 5738 5741 5745 5749 5753 5756 5760 5761 5763 5765 5768
5653 5662 5670 5678 5687 5694 5700 5706 5711 5716 5720 5726 5730 5735 5739 5743 5745 5749 5751 5754 5756 5757
5638 5648 5656 5665 5673 5680 5687 5693 5698 5703 5709 5715 5720 5724 5728 5731 5735 5738 5741 5743 5745 5747
5623 5632 5642 5651 5659 5667 5674 5680 5685 5692 5698 5703 5708 5713 5716 5719 5724 5727 5730 5732 5735 5737
5608 5618 5628 5638 5646 5654 5661 5666 5672 5679 5685 5691 5695 5701 5705 5708 5712 5716 5718 5722 5724 5725
5595 5605 5614 5623 5632 5640 5647 5654 5660 5666 5673 5678 5683 5689 5693 5697 5700 5704 5707 5710 5713 5715
5582 5591 5600 5609 5618 5626 5633 5640 5647 5655 5661 5666 5671 5676 5680 5684 5688 5692 5696 5699 5701 5704
5567 5577 5586 5596 5604 5612 5620 5627 5634 5641 5647 5653 5658 5663 5667 5671 5675 5679 5682 5686 5689 5692
5556 5563 5573 5582 5590 5598 5607 5614 5621 5627 5634 5639 5644 5649 5654 5658 5662 5665 5669 5673 5676 5679
5544 5553 5560 5568 5577 5585 5594 5601 5607 5614 5620 5626 5630 5635 5639 5644 5648 5651 5655 5659 5662 5665
5534 5543 5549 5557 5565 5571 5579 5587 5594 5600 5606 5611 5616 5621 5626 5630 5634 5638 5642 5646 5648 5651
5525 5532 5539 5546 5554 5561 5567 5574 5579 5586 5592 5597 5602 5607 5612 5616 5620 5624 5628 5631 5634 5636